Simultaneous Nadir Overpasses (SNOs) Predictions

Prediction of SNOs between METOP-A and NOAA-19 Satellite Orbit:

Table of predicted SNOs for the next 14.0 days since TLE Epoch: 3/6/2015
Index Date (METOP-A) Time (METOP-A) Lat,Lon (METOP-A) SZA (METOP-A ) Date (NOAA-19) Time (NOAA-19) Lat,Lon (NOAA-19) SZA (NOAA-19 ) Distance(km) Time Diff (sec)
1 03/14/2015 09:37:06 -75.25,-146.40 102.21 03/14/2015 09:35:58 -75.26,-149.27 102.11 81.34 68
2 03/14/2015 10:27:56 74.75, 19.52 77.32 03/14/2015 10:26:49 74.74, 19.53 77.32 1.14 67
3 03/14/2015 11:18:38 -74.75,-173.15 102.70 03/14/2015 11:17:50 -74.75,-173.26 102.69 3.24 48
4 03/14/2015 12:09:18 74.73, -5.87 77.27 03/14/2015 12:08:51 74.70, -5.87 77.24 3.48 27
5 03/14/2015 13:00:01 -74.68, 161.32 102.79 03/14/2015 12:59:52 -74.71, 161.35 102.76 3.39 9
6
